カタログに戻る

STARLINK-36959

運用中通信VLEO
NORAD 68060·PAYLOAD·🇺🇸 United States

打ち上げ Mar 2, 2026 から Vandenberg Space Force Base

Loading…

次のパス (今後24時間)

TLE

最新Source: CelesTrak SupGP

元期: Sep 14, 2026, 21:23 UTC

1 68060C 26041W   26257.89145833  .00044714  00000+0  13211-2 0  2572
2 68060  53.1576 245.8899 0001572  92.2774  88.4509 15.34366256    16

AllMySatでSTARLINK-36959をリアルタイム追跡

Download on the App Store